Wetbulb
21.02 19.89 18.07 17.25 16.91 16.18 14.91 14.03 14.10 15.14 15.83 17.26 18.97 20.54 21.67 22.70 24.47 27.78 26.77 27.01 28.63 29.15 30.34 30.31 31.30 32.52 32.50 33.42 34.29 34.59 35.43 36.83 35.31 34.93 36.65 36.74 37.20 36.99 36.38 36.59 36.08 34.76 34.72
18.90 17.65 17.06 16.48 15.08 13.57 12.46 12.74 13.82 13.72 15.57 17.46 18.85 19.71 20.80 22.24 24.30 25.65 25.60 26.15 27.60 28.03 29.07 29.58 29.81 31.00 30.61 32.75 33.23 33.25 34.47 35.55 35.18 32.47 33.58 33.04 33.34 34.50 35.41 34.66 34.89 34.98 32.98
16.72 15.64 14.57 13.68 12.40 11.26 10.01 11.02 11.79 11.87 13.51 16.28 17.56 18.15 19.11 20.86 23.96 25.63 26.09 26.37 27.57 28.06 28.57 29.65 29.68 30.01 29.50 31.46 32.29 32.20 33.17 35.00 34.67 32.25 31.82 32.26 31.86 31.98 31.80 31.88 31.87 31.82 34.06
14.76 13.06 12.21 11.31 9.81 9.26 7.45 5.14 6.10 9.42 12.45 13.47 15.03 16.79 18.05 20.55 24.89 26.53 25.82 26.09 26.95 27.46 28.43 29.62 29.70 29.12 29.45 31.38 31.88 31.99 32.33 32.27 32.25 31.89 31.85 31.45 31.57 31.39 31.91 30.98 30.21 31.73 31.38
11.61 8.10 5.01 8.39 6.76 3.81 0.55 0.47 2.79 5.87 8.48 9.14 12.54 14.51 16.58 21.31 25.48 26.39 25.40 25.52 25.86 25.67 27.80 27.97 28.63 28.79 30.52 33.05 32.25 32.05 31.75 31.26 31.84 31.89 31.63 31.68 30.91 30.39 30.64 31.50 30.66 29.55 29.48
5.35 -1.69 -2.08 0.09 0.67 -1.06 -4.13 -1.81 0.40 3.41 5.85 6.94 9.31 12.91 15.14 20.11 27.54 28.19 25.79 23.95 24.05 24.89 25.60 25.95 26.62 27.50 28.83 32.59 34.69 35.37 33.77 31.16 30.32 31.35 31.36 30.89 30.94 31.30 31.77 31.45 29.96 28.81 26.71
1.72 -5.39 -6.37 -7.55 -4.33 -5.97 -4.59 -2.90 0.68 2.90 5.45 6.88 9.25 12.87 13.12 16.27 26.81 26.89 25.27 22.63 23.10 22.63 23.82 24.28 24.44 26.23 28.04 30.91 32.78 34.56 33.15 34.50 34.26 31.63 30.05 30.10 30.38 30.82 31.70 30.91 30.35 29.68 28.27
-1.51 -6.28 -5.74 -6.44 -4.52 -4.33 -4.75 -1.43 -0.78 1.66 2.88 10.61 10.23 11.28 13.36 15.60 25.45 25.62 24.69 21.97 22.32 21.28 21.61 22.56 22.89 24.70 27.52 30.87 31.14 31.73 31.80 31.45 31.71 31.75 31.34 31.37 31.65 31.68 31.38 31.61 30.01 28.30 28.53
-2.22 -4.14 -4.31 -4.02 -4.17 -6.06 -3.21 -3.73 -0.44 4.66 9.80 8.87 12.17 10.86 12.10 12.80 23.61 24.72 23.46 20.48 20.77 20.01 20.64 20.84 22.50 23.93 28.69 32.12 30.97 30.93 31.16 31.09 33.24 34.06 34.17 33.85 33.47 33.64 33.48 31.40 28.99 28.40 25.79
-0.86 0.01 -1.47 -1.92 -2.08 -3.47 -1.55 0.00 1.67 5.51 11.94 13.54 13.26 11.88 11.47 12.63 19.69 24.16 23.57 19.97 18.36 18.28 18.28 19.42 22.23 23.78 28.61 31.66 31.07 30.95 30.15 29.77 30.09 29.41 29.16 29.54 29.34 29.05 29.67 28.37 28.98 28.00 26.12
3.94 2.78 1.12 1.51 3.09 3.01 5.54 7.83 8.11 8.25 9.13 5.89 10.62 11.93 11.70 12.62 13.65 23.64 23.87 19.85 18.57 17.64 16.52 16.65 18.74 24.47 28.40 30.90 32.82 31.24 31.54 31.74 30.06 28.54 27.77 27.71 27.77 26.58 25.52 25.38 25.76 26.38 25.77
6.53 6.02 5.18 4.67 10.89 10.47 8.40 10.68 10.22 10.37 10.20 8.34 8.96 10.75 12.62 13.72 17.44 22.09 22.54 21.46 21.41 17.46 15.72 16.84 17.69 25.02 27.89 28.95 30.62 32.10 32.48 30.95 28.96 27.27 26.61 26.11 25.99 25.82 25.35 24.48 23.94 24.11 24.88
6.75 4.75 4.30 7.20 10.71 11.40 10.03 10.00 9.66 10.28 10.02 10.30 11.25 10.00 10.97 13.59 15.26 21.33 20.09 19.51 19.80 17.16 15.81 17.84 21.41 23.65 24.73 23.74 27.05 29.12 28.07 28.58 27.95 26.06 25.52 25.51 25.85 26.80 27.19 26.18 25.14 24.44 23.59
4.75 5.02 6.11 6.61 7.89 8.41 11.75 11.41 9.29 7.48 7.38 10.44 10.67 9.40 10.54 12.11 16.88 18.09 16.37 15.25 17.47 15.04 12.64 11.17 17.23 18.53 19.80 19.87 19.47 22.22 23.96 26.31 27.62 26.84 25.90 25.98 26.20 26.39 26.35 26.73 25.72 24.04 22.84
5.20 6.53 8.18 8.09 6.17 7.46 9.46 8.34 10.64 10.46 11.29 6.51 5.67 8.63 4.40 9.60 17.37 20.24 17.94 15.11 13.80 13.96 4.96 4.48 7.25 8.21 9.28 11.09 13.24 16.06 19.64 20.62 24.16 27.16 26.48 25.45 25.39 25.46 25.67 26.86 26.28 24.67 22.51
5.53 6.98 7.14 6.98 5.08 5.90 5.11 4.22 14.54 15.76 17.26 17.77 18.17 15.90 14.22 18.40 20.41 20.46 18.74 17.24 15.44 13.66 -2.35 1.14 2.46 3.63 4.77 6.78 8.03 10.43 14.72 16.11 18.53 23.90 26.47 25.84 24.93 24.57 24.80 26.00 26.23 24.51 22.80
7.14 6.40 6.20 6.03 5.03 2.58 1.43 0.92 -2.18 4.87 13.67 14.92 16.01 16.69 17.32 18.01 18.97 18.95 17.57 14.00 14.01 6.71 -4.28 -1.16 -0.35 0.78 2.09 4.02 6.43 7.96 9.59 13.89 17.21 21.97 25.29 25.61 25.43 24.92 24.17 23.98 24.80 24.47 23.31
5.20 5.70 5.95 4.67 3.20 1.22 1.11 -0.15 -2.41 -4.29 -5.72 -2.86 7.71 13.02 14.94 16.89 17.08 16.72 15.13 7.28 0.79 1.13 -7.53 -9.69 -8.11 -1.91 -0.48 0.99 3.31 5.34 6.81 11.77 13.91 17.04 19.22 22.31 25.10 24.51 23.03 22.20 22.83 23.39 23.41
4.87 4.97 4.24 2.42 1.46 1.01 -0.29 -2.14 -4.13 -6.06 -8.16 -10.29 -10.59 2.95 3.08 13.27 13.84 12.81 11.02 -8.56 -11.85 -11.23 -9.00 -8.36 -2.75 -6.64 -3.50 -1.98 0.99 4.10 5.01 8.88 11.65 12.34 14.37 16.65 18.58 23.26 23.53 22.64 21.61 23.31 23.46
3.34 4.60 3.40 2.91 -0.71 -2.97 -3.00 -6.30 -8.69 -10.49 -13.26 -14.33 -13.44 -10.59 -9.07 -6.11 -8.88 -9.10 -9.75 -12.75 -13.42 -12.59 -11.10 -7.10 -5.00 -2.89 -3.30 -4.52 -0.97 1.75 2.90 6.08 8.03 9.26 10.02 12.62 14.79 18.10 22.97 22.36 21.22 19.76 17.98
3.77 3.38 1.82 -1.12 0.04 -3.52 -5.69 -6.85 -10.10 -14.53 -13.80 -16.29 -14.85 -9.79 11.02 -8.47 -12.52 -14.69 -14.93 -12.77 -13.53 -12.77 -12.04 -12.39 -11.10 -8.33 -3.44 -3.08 -1.72 0.15 -0.07 1.73 5.38 7.11 7.46 8.28 11.10 13.63 17.22 22.26 19.81 19.00 18.85
3.26 3.21 1.62 -0.48 -2.31 -5.73 -9.05 -8.01 -11.65 -14.56 -16.45 -16.16 -15.56 -14.84 8.74 -10.87 -13.39 -14.44 -15.34 -15.00 -14.08 -15.94 -15.27 -15.51 -15.51 -14.27 -10.32 -7.13 -5.43 -3.16 -1.07 -0.73 1.82 3.41 4.80 5.63 8.08 12.18 15.04 17.46 21.56 19.98 16.45
3.24 1.16 -1.16 -7.28 -4.33 -7.81 -9.12 -12.93 -15.04 -17.07 -17.12 -18.95 -19.46 -17.99 -18.46 -16.94 -17.47 -17.05 -16.21 -16.12 -17.12 -15.14 -13.97 -17.50 -16.61 -13.53 -13.62 -12.73 -6.41 -7.17 -7.60 -3.47 -2.16 -1.67 1.32 3.12 5.37 8.34 12.11 15.58 18.79 20.14 19.18
1.91 0.87 0.41 -2.58 -4.95 -6.56 -7.28 -8.78 -13.70 -13.57 -16.05 -17.39 -20.02 -20.38 -19.71 -19.12 -18.03 -16.03 -15.67 -17.41 -18.21 -17.76 -19.04 -18.26 -16.79 -15.94 -14.15 -13.24 -13.98 -12.86 -8.44 -8.07 -11.63 -7.95 -4.58 -4.40 0.93 7.57 9.92 12.96 15.71 18.12 19.67
2.51 1.77 1.35 -0.30 -2.92 -3.78 -7.91 -10.96 -13.32 -14.82 -15.14 -14.66 -15.63 -19.95 -19.35 -20.84 -20.13 -18.21 -15.98 -19.41 -19.62 -18.79 -15.02 -16.58 -17.47 -15.60 -13.82 -12.10 -11.52 -10.14 -6.15 -0.36 -6.15 -7.11 -11.07 -6.99 -1.02 6.27 9.40 12.24 14.51 16.89 18.04
0.64 -0.08 -0.15 -2.47 -5.16 -8.31 -8.62 -10.57 -11.68 -13.43 -13.80 -13.80 -14.97 -15.77 -16.79 -17.63 -16.41 -19.19 -17.92 -19.46 -18.32 -17.95 -17.88 -18.23 -17.63 -15.17 -10.63 -10.08 -9.82 -1.97 1.28 9.70 10.64 3.27 -10.20 -7.98 -1.71 4.34 6.69 9.63 12.42 15.88 15.78
MSLP
1031.81 1032.22 1032.18 1032.07 1032.29 1032.38 1032.22 1032.25 1031.78 1031.35 1030.63 1029.90 1029.04 1028.19 1027.39 1026.53 1025.70 1024.71 1024.15 1023.53 1022.74 1021.86 1021.01 1020.30 1019.57 1018.81 1017.95 1016.81 1016.02 1015.33 1014.61 1013.97 1013.71 1013.82 1013.89 1014.14 1014.38 1014.52 1014.97 1015.00 1015.60 1015.81 1016.05
1032.05 1032.39 1032.54 1032.50 1032.74 1032.76 1032.75 1032.53 1032.08 1031.66 1030.94 1030.14 1029.39 1028.50 1027.77 1027.04 1026.17 1025.15 1024.53 1023.97 1023.15 1022.32 1021.58 1020.74 1020.02 1019.21 1018.35 1017.51 1016.62 1015.77 1014.95 1014.39 1014.24 1014.23 1014.35 1014.62 1014.69 1014.64 1015.06 1015.40 1015.73 1015.94 1016.02
1032.31 1032.74 1032.88 1033.11 1033.46 1033.59 1033.40 1033.24 1032.70 1032.22 1031.42 1030.57 1029.85 1028.99 1028.13 1027.33 1026.37 1025.52 1024.90 1024.37 1023.58 1022.90 1022.20 1021.44 1020.73 1019.85 1018.87 1017.89 1016.83 1015.96 1015.28 1015.00 1014.66 1014.50 1014.57 1014.78 1015.06 1015.12 1015.34 1015.61 1015.78 1015.99 1015.98
1032.71 1033.24 1033.59 1033.68 1034.14 1034.20 1034.14 1033.91 1033.59 1032.60 1031.80 1031.17 1030.53 1029.67 1028.68 1027.51 1026.38 1025.78 1025.23 1024.69 1024.02 1023.40 1022.61 1021.92 1021.15 1020.42 1019.58 1018.34 1017.23 1016.50 1015.94 1015.48 1015.03 1014.77 1014.96 1015.03 1015.16 1015.32 1015.31 1015.40 1015.77 1015.98 1016.46
1033.16 1033.99 1034.37 1034.41 1034.75 1034.90 1034.64 1034.34 1033.67 1032.94 1032.27 1031.66 1030.96 1030.09 1029.19 1027.62 1026.54 1025.91 1025.52 1025.13 1024.49 1023.81 1023.09 1022.44 1021.66 1020.84 1019.89 1018.89 1018.07 1017.27 1016.46 1015.67 1015.29 1015.11 1014.96 1014.84 1015.02 1015.17 1015.19 1015.22 1015.74 1016.28 1016.77
1033.88 1034.58 1034.69 1034.71 1035.14 1035.10 1034.78 1034.63 1034.08 1033.49 1032.61 1032.04 1031.34 1030.65 1029.69 1028.40 1026.93 1026.16 1025.82 1025.64 1025.19 1024.39 1023.63 1023.00 1022.25 1021.21 1020.24 1019.22 1018.35 1017.72 1017.20 1016.56 1015.92 1015.53 1015.22 1015.13 1015.26 1015.42 1015.15 1015.19 1015.48 1016.40 1016.92
1034.36 1034.92 1034.80 1035.03 1035.20 1035.23 1034.99 1034.64 1034.28 1033.50 1033.16 1032.42 1031.63 1031.06 1030.30 1029.26 1027.26 1026.48 1026.36 1026.21 1025.59 1025.06 1024.40 1023.72 1022.88 1021.90 1020.80 1019.67 1018.82 1018.13 1017.55 1016.94 1016.65 1016.30 1015.97 1015.91 1015.81 1015.61 1015.47 1015.45 1015.52 1016.16 1016.70
1034.54 1034.86 1034.71 1035.17 1035.41 1035.30 1034.94 1034.59 1034.14 1033.56 1033.06 1032.75 1032.04 1031.39 1030.79 1029.92 1027.80 1026.86 1026.71 1026.63 1026.11 1025.68 1025.08 1024.45 1023.65 1022.53 1021.34 1020.18 1019.21 1018.31 1017.76 1017.40 1017.22 1016.99 1016.76 1016.46 1015.92 1015.70 1015.45 1015.62 1016.00 1016.55 1017.12
1034.42 1034.83 1034.61 1034.88 1035.16 1035.04 1034.91 1034.50 1034.20 1033.61 1032.99 1032.70 1032.45 1031.90 1031.26 1030.45 1028.75 1027.33 1027.03 1026.83 1026.43 1026.04 1025.57 1025.10 1024.28 1023.11 1021.77 1020.45 1019.62 1019.00 1018.34 1017.98 1017.77 1017.40 1017.17 1017.04 1016.67 1015.99 1016.09 1016.32 1016.58 1016.83 1017.29
1034.02 1034.23 1034.33 1034.59 1034.61 1034.63 1034.64 1034.50 1034.20 1033.84 1033.05 1032.75 1032.56 1032.15 1031.76 1031.00 1029.67 1027.83 1027.11 1027.08 1026.71 1026.28 1025.84 1025.31 1024.57 1023.68 1022.15 1020.96 1020.20 1019.44 1018.68 1018.54 1018.32 1018.18 1018.05 1017.78 1017.49 1017.14 1017.12 1016.92 1016.78 1017.06 1017.45
1033.10 1033.64 1034.11 1034.29 1034.48 1034.36 1034.13 1034.13 1033.84 1034.03 1033.43 1032.85 1032.66 1032.24 1031.82 1031.29 1030.51 1028.45 1027.57 1027.17 1026.89 1026.59 1026.19 1025.50 1024.93 1023.80 1022.40 1021.38 1020.54 1019.93 1019.35 1019.11 1018.90 1018.73 1018.61 1018.56 1018.38 1018.19 1018.14 1017.91 1017.91 1017.69 1017.90
1032.91 1033.48 1033.79 1033.99 1033.87 1033.85 1033.74 1033.73 1033.69 1033.60 1033.61 1033.06 1032.73 1032.46 1031.85 1031.21 1030.45 1029.18 1028.30 1027.74 1027.03 1026.90 1026.69 1026.10 1025.33 1023.90 1022.80 1022.08 1021.30 1020.72 1020.25 1019.87 1019.62 1019.38 1019.30 1019.28 1019.08 1019.01 1019.02 1018.66 1018.78 1018.64 1018.62
1032.20 1033.15 1033.30 1033.41 1033.51 1033.56 1033.59 1033.86 1033.77 1033.61 1033.45 1033.21 1032.83 1032.54 1032.05 1031.26 1030.59 1029.45 1029.12 1028.50 1027.68 1027.29 1027.31 1026.46 1025.48 1024.53 1023.80 1023.14 1022.34 1021.62 1021.07 1020.70 1020.41 1020.05 1019.86 1019.81 1019.71 1019.47 1019.24 1019.16 1019.24 1019.36 1019.34
1031.77 1032.55 1032.68 1033.05 1033.49 1033.63 1033.58 1033.54 1033.64 1033.72 1033.50 1033.15 1032.86 1032.50 1032.13 1031.38 1030.47 1029.72 1029.54 1029.17 1028.54 1028.04 1027.96 1027.41 1026.32 1025.69 1025.02 1024.42 1023.59 1022.91 1022.33 1021.83 1021.26 1020.76 1020.48 1020.30 1020.04 1019.79 1019.57 1019.51 1019.52 1019.68 1019.72
1031.15 1031.78 1032.47 1032.86 1033.05 1033.30 1033.32 1033.36 1033.35 1033.10 1032.90 1032.81 1032.65 1032.34 1032.06 1031.35 1030.39 1029.93 1029.80 1029.49 1029.24 1028.86 1028.94 1028.37 1027.55 1027.10 1026.65 1026.02 1025.19 1024.56 1023.74 1023.27 1022.35 1021.51 1021.09 1020.85 1020.47 1020.30 1020.16 1020.04 1019.98 1020.16 1020.42
1030.51 1031.62 1031.90 1032.40 1033.01 1033.38 1033.48 1033.52 1032.64 1032.49 1032.12 1032.22 1032.19 1031.91 1032.06 1031.34 1030.72 1030.47 1030.48 1030.26 1030.13 1029.74 1030.27 1030.22 1029.83 1029.34 1028.77 1028.26 1027.43 1026.32 1025.52 1024.86 1023.76 1022.62 1021.78 1021.37 1021.17 1021.07 1020.77 1020.78 1020.64 1020.85 1020.99
1029.68 1030.70 1031.62 1032.26 1033.06 1033.48 1033.90 1034.03 1033.99 1033.59 1032.92 1032.48 1032.56 1032.22 1031.89 1031.45 1031.24 1031.02 1031.15 1031.43 1031.08 1031.42 1031.63 1031.70 1031.46 1030.94 1030.34 1029.71 1028.94 1028.16 1027.16 1025.96 1024.88 1023.70 1022.82 1022.30 1022.06 1021.99 1021.63 1021.47 1021.46 1021.45 1021.36
1029.47 1030.32 1031.10 1031.76 1032.35 1032.92 1033.30 1033.46 1033.88 1033.94 1033.93 1033.74 1033.35 1032.65 1032.35 1031.76 1031.62 1031.61 1031.80 1032.24 1032.30 1032.39 1032.88 1032.93 1032.56 1032.03 1031.40 1030.76 1029.99 1029.18 1028.26 1027.04 1026.15 1025.23 1024.32 1023.72 1023.07 1022.58 1022.49 1022.35 1022.16 1021.98 1022.16
1029.22 1030.06 1030.69 1031.30 1031.98 1032.34 1033.25 1034.10 1034.55 1035.20 1035.42 1035.30 1034.60 1033.56 1033.66 1032.47 1032.13 1032.23 1032.55 1033.31 1033.93 1034.17 1033.78 1033.54 1033.23 1032.77 1032.21 1031.55 1030.86 1030.08 1029.35 1028.51 1027.86 1027.09 1026.14 1025.36 1024.34 1023.58 1023.25 1022.99 1022.81 1022.83 1022.89
1028.62 1029.28 1030.26 1031.07 1032.19 1033.08 1033.66 1034.57 1035.27 1035.54 1035.69 1035.80 1035.74 1035.10 1034.38 1034.14 1033.90 1033.54 1033.68 1033.98 1034.20 1034.31 1034.27 1034.02 1033.71 1033.30 1032.72 1032.17 1031.55 1030.82 1030.35 1029.48 1028.96 1028.25 1027.73 1026.81 1025.79 1024.96 1024.15 1023.70 1023.59 1023.58 1023.69
1028.29 1029.38 1030.21 1031.28 1031.70 1032.49 1033.13 1034.22 1034.66 1035.48 1036.16 1036.19 1035.71 1035.06 1034.61 1034.73 1034.85 1034.53 1034.40 1034.30 1034.40 1034.42 1034.32 1034.33 1034.23 1033.69 1032.93 1032.61 1032.17 1031.78 1031.26 1030.63 1030.21 1029.80 1029.20 1028.30 1027.17 1026.17 1025.30 1024.42 1024.23 1024.13 1023.99
1028.14 1028.98 1029.97 1030.91 1031.81 1032.54 1033.26 1033.66 1034.72 1035.08 1035.60 1036.37 1035.58 1035.23 1035.11 1035.07 1034.99 1034.82 1034.70 1034.65 1034.19 1034.03 1034.00 1034.19 1034.15 1033.89 1033.48 1033.12 1032.71 1032.24 1031.77 1031.26 1031.01 1030.61 1029.88 1029.16 1028.15 1027.22 1026.36 1025.58 1024.92 1024.54 1024.35
1028.01 1028.92 1029.88 1030.68 1031.52 1032.41 1032.99 1033.39 1034.30 1034.90 1035.35 1035.40 1035.41 1035.35 1035.33 1035.23 1035.15 1035.02 1034.91 1034.50 1034.24 1033.73 1033.19 1033.45 1033.68 1033.44 1033.11 1032.89 1032.50 1032.39 1032.28 1031.78 1031.48 1031.28 1030.73 1030.03 1029.07 1028.20 1027.52 1026.61 1025.81 1025.07 1024.84
1027.92 1028.80 1029.46 1030.45 1031.22 1032.16 1032.70 1033.25 1033.57 1034.13 1034.57 1034.98 1035.01 1035.08 1035.13 1035.11 1035.03 1034.93 1034.50 1034.33 1034.10 1033.74 1033.46 1033.19 1033.02 1033.02 1032.95 1032.69 1032.40 1032.07 1031.83 1031.58 1031.47 1031.29 1031.00 1030.87 1030.11 1029.24 1028.55 1027.43 1026.52 1025.85 1025.38
1027.30 1028.05 1029.00 1029.73 1030.78 1031.46 1032.19 1032.99 1033.19 1033.50 1033.90 1034.39 1034.40 1034.60 1034.61 1034.81 1034.88 1034.72 1034.04 1034.09 1033.93 1033.77 1033.25 1033.04 1032.75 1032.50 1032.41 1032.39 1032.29 1031.94 1031.46 1030.95 1030.55 1030.42 1030.65 1030.67 1030.28 1029.47 1028.76 1027.91 1027.21 1026.59 1026.01
1026.71 1027.62 1028.49 1029.38 1030.13 1031.15 1032.04 1032.57 1033.23 1033.10 1033.32 1033.77 1033.79 1033.93 1034.04 1034.28 1034.44 1034.17 1033.82 1033.82 1033.58 1033.42 1033.20 1032.93 1032.63 1032.30 1031.91 1031.80 1031.72 1031.51 1031.27 1030.73 1030.07 1030.07 1030.35 1030.47 1030.15 1029.53 1028.91 1028.35 1027.77 1027.13 1026.69
Wind_Speed
4 4 4 5 7 7 8 8 9 10 10 10 11 10 10 11 11 10 11 12 13 11 11 12 13 13 10 9 8 6 5 4 2 1 2 2 2 5 4 5 4 4 4
5 4 6 7 8 8 9 9 10 10 10 11 11 10 10 9 10 11 11 12 13 14 13 13 13 12 13 12 8 9 5 5 2 1 1 1 2 3 4 6 4 3 3
5 4 5 7 7 7 7 9 9 9 9 11 11 11 11 10 9 10 12 12 12 12 13 12 12 14 13 12 10 8 6 4 3 1 1 1 1 0 3 2 2 2 2
6 5 6 7 6 6 6 6 6 7 7 9 10 9 9 9 9 11 13 12 11 11 12 12 12 14 14 14 10 10 8 5 2 1 1 1 1 1 1 2 2 2 2
6 6 4 5 5 4 5 6 5 6 6 6 8 9 9 8 9 11 11 10 11 12 10 12 12 15 24 21 10 9 10 8 4 1 0 1 1 1 2 2 3 3 2
6 5 2 5 4 4 4 6 5 6 7 6 8 8 9 8 17 18 15 10 11 11 11 12 12 15 19 25 22 18 12 9 8 4 3 3 3 1 1 2 4 2 2
6 4 3 4 4 4 4 4 5 5 5 7 7 8 9 10 19 19 19 9 9 11 12 11 12 11 15 15 18 15 10 16 15 6 5 4 2 3 1 2 3 2 2
6 4 4 4 3 4 4 4 4 3 4 6 7 9 8 8 20 20 19 9 8 10 11 12 12 14 16 17 13 11 8 7 9 6 7 6 5 4 4 2 4 5 3
6 5 4 4 3 2 4 4 3 3 4 3 5 8 10 10 23 20 15 9 10 10 10 10 12 14 23 25 12 10 7 7 8 14 15 16 16 17 8 3 3 2 2
7 6 5 4 3 2 1 3 2 2 5 5 6 6 7 10 20 21 17 7 9 8 9 10 16 19 24 22 11 9 7 6 6 7 8 10 11 12 15 7 3 3 3
8 6 5 4 3 2 1 1 2 3 4 4 5 6 6 8 11 22 23 8 7 7 8 9 9 24 21 20 19 10 9 6 7 6 6 6 6 7 7 7 7 4 2
9 7 6 4 3 2 4 1 3 2 3 3 4 6 6 8 14 17 24 22 18 8 8 8 10 20 19 18 14 20 17 9 4 4 4 5 4 4 4 6 7 6 6
10 7 6 5 4 4 4 3 2 2 2 3 4 5 7 8 7 15 21 21 19 10 10 12 17 17 17 13 20 20 12 7 3 5 5 4 3 3 1 1 2 3 6
11 9 7 6 4 2 3 3 2 1 2 2 2 3 5 7 6 8 9 9 13 11 13 8 11 14 15 14 11 12 9 8 6 5 5 3 3 4 4 3 2 1 5
10 9 7 5 5 3 2 2 1 2 3 2 2 1 1 6 9 17 16 10 10 12 8 5 9 8 10 10 10 9 9 9 8 7 6 5 5 5 4 4 4 4 5
11 7 7 6 4 3 3 1 2 3 6 7 9 5 0 11 16 18 20 19 20 16 5 7 8 8 8 8 9 9 8 11 9 7 6 6 5 5 5 4 4 4 4
12 9 7 6 5 5 3 3 2 4 3 7 8 8 10 10 14 15 17 15 19 14 5 7 6 7 7 7 7 7 7 8 10 9 7 7 6 4 4 4 4 4 4
9 10 8 7 6 5 4 4 3 2 0 3 6 6 9 10 12 13 14 10 7 8 4 3 3 5 6 7 7 7 8 8 9 9 9 8 7 5 4 4 4 4 3
9 7 7 6 5 5 4 3 2 2 1 2 3 4 6 10 10 11 12 3 2 3 3 3 4 3 4 5 6 7 7 7 8 8 8 8 8 6 4 3 3 5 4
7 11 8 7 5 4 4 4 2 2 2 1 2 3 3 4 4 4 2 2 2 1 2 3 4 4 4 3 5 6 6 7 8 8 8 8 8 7 6 5 4 3 3
8 8 9 5 6 5 5 4 4 4 3 3 3 3 4 3 1 1 2 3 1 0 2 2 3 3 4 4 4 4 5 5 6 6 6 8 8 8 8 6 3 2 2
8 8 7 6 4 4 4 3 3 3 4 3 3 3 7 1 0 2 3 4 3 3 3 2 2 2 2 2 3 4 4 4 5 6 6 7 7 7 8 7 5 2 3
8 8 6 4 4 4 3 3 4 3 3 4 3 2 2 2 3 3 3 4 3 4 3 0 0 3 2 2 2 2 2 4 4 3 5 6 6 7 7 7 7 3 3
8 8 8 6 5 5 4 5 4 5 4 4 3 3 3 4 4 4 4 3 3 4 3 3 2 2 3 3 3 3 3 4 3 3 4 2 4 6 6 6 7 6 3
8 8 8 8 7 7 5 4 4 4 4 4 4 3 3 3 4 4 4 3 3 3 4 3 3 3 3 4 4 6 6 7 5 4 1 2 3 6 6 6 7 7 3
9 8 7 5 5 4 4 5 5 4 5 5 4 4 4 4 4 3 3 3 3 3 4 3 4 6 7 4 5 6 5 9 6 3 2 1 3 4 4 6 8 6 5
Wind_Direction
84 67 59 46 37 22 10 356 350 340 345 340 334 332 335 337 341 355 351 351 353 349 355 353 351 351 346 343 335 332 331 345 294 93 62 356 98 127 112 106 108 96 72
87 78 60 49 39 22 10 356 354 346 347 341 338 338 339 339 335 351 347 352 355 357 356 357 355 351 351 345 336 336 332 331 303 250 124 77 64 91 115 119 113 99 97
94 85 68 54 37 21 2 358 350 341 342 345 342 343 342 337 331 347 358 353 357 358 357 355 355 354 348 346 343 349 340 326 331 292 168 127 102 143 102 96 108 95 90
100 82 68 56 35 15 357 345 334 332 342 346 335 332 334 326 347 353 2 353 357 1 360 355 355 355 345 347 347 348 343 326 295 258 210 140 116 124 122 128 117 72 90
108 89 63 63 37 9 359 339 336 341 344 340 336 340 340 342 354 2 8 350 351 357 350 357 350 349 352 356 354 348 353 351 331 324 19 100 112 152 160 139 109 105 64
116 114 106 71 38 355 346 343 347 342 344 345 350 341 348 347 351 10 18 359 353 348 348 360 347 350 348 350 353 353 12 7 359 348 4 48 40 29 46 102 116 156 123
122 126 113 82 47 347 335 356 347 351 342 347 356 351 344 340 3 13 15 358 1 355 349 3 348 346 344 348 347 346 10 21 24 1 26 15 46 18 32 70 83 85 83
133 147 121 98 59 358 11 1 340 345 346 355 357 355 349 343 358 9 14 358 357 358 350 353 346 343 342 348 345 346 6 21 23 22 28 24 33 33 46 41 92 93 89
151 159 143 131 103 34 22 347 326 348 8 4 6 0 355 347 353 6 19 359 352 358 348 348 343 344 342 351 350 341 2 22 21 32 38 39 41 46 51 103 96 110 81
162 168 152 157 153 112 337 340 310 324 37 22 8 360 346 347 343 6 13 1 345 351 351 345 348 347 345 352 351 343 3 8 28 29 28 22 29 38 37 35 19 92 103
154 148 147 163 166 194 77 336 25 2 18 17 14 349 343 343 327 0 4 8 346 351 348 341 342 341 345 357 5 3 17 15 34 42 34 21 27 34 32 31 29 36 75
144 150 150 162 163 133 99 52 56 28 13 10 21 357 346 339 335 354 7 2 352 0 347 338 329 344 354 3 6 20 18 20 16 42 39 23 22 21 30 46 38 40 45
144 154 153 167 161 149 123 92 66 38 41 30 27 6 341 338 324 5 11 4 357 5 347 336 343 356 3 5 9 14 11 8 355 41 36 29 13 0 7 56 43 43 57
145 159 167 153 140 124 123 134 122 29 359 22 16 8 342 334 339 16 17 354 4 5 353 347 8 14 16 11 6 5 3 0 2 22 30 14 7 17 21 9 56 52 52
152 163 158 150 151 150 141 171 163 223 180 226 253 224 340 337 3 17 17 6 13 9 357 2 16 11 10 2 359 1 4 356 359 5 19 20 28 21 25 17 37 44 62
156 162 162 154 152 146 134 53 44 69 63 45 25 31 25 358 14 19 26 21 26 22 12 22 18 9 11 359 353 347 0 349 346 345 12 20 29 18 27 25 43 40 51
160 159 153 152 145 143 127 134 112 338 41 48 29 34 21 12 18 19 33 37 37 35 35 19 17 8 359 350 349 345 341 344 340 355 0 21 17 24 22 23 30 36 42
151 154 158 156 159 151 162 155 145 131 115 318 353 30 20 18 20 20 31 42 25 24 21 354 351 356 353 349 345 346 341 352 357 353 0 2 5 17 15 26 23 32 29
152 158 161 154 159 152 131 118 119 116 221 269 334 343 356 8 21 25 42 87 65 357 352 357 354 329 341 337 335 342 340 354 359 352 355 352 359 352 12 20 18 31 36
157 157 157 156 139 132 138 143 155 170 191 266 310 266 313 25 17 342 354 52 51 31 331 352 345 347 340 333 333 347 340 360 2 1 353 347 352 353 356 9 21 35 29
155 151 151 141 158 163 165 168 171 162 201 222 238 265 303 118 257 281 306 319 316 327 318 320 328 333 340 342 346 344 340 354 357 353 351 345 345 352 347 351 359 18 23
156 158 157 165 157 159 175 163 173 177 187 219 257 291 326 60 267 278 287 288 286 250 192 201 300 295 292 323 330 334 342 353 346 347 344 340 342 349 346 346 345 1 27
160 153 152 141 154 162 161 170 178 188 208 223 231 259 289 274 266 259 261 271 288 301 310 70 138 320 308 302 319 296 312 313 311 323 327 335 337 346 342 344 341 352 28
152 161 166 173 170 177 187 198 192 198 200 223 219 227 229 247 256 258 256 266 283 289 295 306 309 299 305 318 319 300 284 272 236 259 286 303 318 335 329 339 350 343 12
163 166 173 173 178 188 182 202 202 203 203 219 226 222 226 240 261 263 264 259 263 277 290 298 302 304 311 314 316 314 305 306 289 266 266 297 315 331 332 338 349 341 343
165 169 172 165 167 169 184 185 221 206 203 218 219 225 221 222 240 249 261 260 260 271 278 283 287 300 315 310 306 305 299 311 287 251 155 38 348 336 343 346 345 350 345